Flag for Estonia Weather past 2 weeks in Pärnu, Estonia

Now
42 °F

Overcast.


Feels Like: 42 °F
Forecast: 41 / 49 °F
Wind: 2 mph from Northwest

Location: Pjarnu

Current Time: Apr 22, 2015 at 8:02:13 AM

Latest Report: Apr 22, 2015 at 7:00 AM


Visibility: 31 mi

Pressure: 30.11 "Hg

Humidity: 82%

Dew point: 36 °F

Location of PärnuLocation

Historic Weather in Pärnu — Graph

°F

Pärnu temperature yesterday

Maximum temperature yesterday: 53 °F (at 5:00 PM)
Minimum temperature yesterday: 34 °F (at 6:00 AM)
Average temperature yesterday: 44 °F

Past Weeks' High & Low Weather Summary

 TemperatureHumidityPressure
High53 °F (Apr 21, 5:00 PM)98% (Apr 11, 7:00 AM)30.21 "Hg (Apr 11, 7:00 AM)
Low31 °F (Apr 10, 7:00 AM)33% (Apr 21, 3:00 PM)29.21 "Hg (Apr 16, 4:00 AM)
Average41 °F73%29.86 "Hg
* Reported Apr 7 6:00 AM — Apr 22 6:00 AM, Pärnu, Weather by CustomWeather, © 2015

Note: Actual official high and low records may vary slightly from our data, if they occured in-between our weather recording intervals... More about our weather records

Advertising

Pärnu weather history for previous 24 hours

 ConditionsComfort  
Time TempWeatherWind HumidityBarometerVisibility
6:00 AM
Wed, Apr 22
41 °FOvercast.1 mph82%30.11 "Hg31 mi
5:00 AM41 °FOvercast.1 mph82%30.11 "Hg31 mi
4:00 AM41 °FOvercast.1 mph81%30.12 "Hg31 mi
3:00 AM42 °FOvercast.2 mph80%30.13 "Hg31 mi
2:00 AM43 °FOvercast.2 mph78%30.14 "Hg31 mi
1:00 AM43 °FOvercast.3 mph75%30.14 "Hg31 mi
12:00 AM44 °FOvercast.2 mph69%30.14 "Hg31 mi
11:00 PM
Tue, Apr 21
44 °FOvercast.2 mph65%30.14 "Hg31 mi
10:00 PM45 °FOvercast.1 mph60%30.13 "Hg31 mi
9:00 PM46 °FOvercast.2 mph55%30.13 "Hg31 mi
8:00 PM50 °FOvercast.6 mph46%30.11 "Hg31 mi
7:00 PM51 °FScattered clouds.5 mph39%30.10 "Hg31 mi
6:00 PM52 °FPassing clouds.6 mph37%30.10 "Hg28 mi
5:00 PM53 °FScattered clouds.7 mph36%30.10 "Hg28 mi
4:00 PM52 °FPassing clouds.7 mph33%30.09 "Hg22 mi
3:00 PM52 °FPassing clouds.6 mph33%30.10 "Hg22 mi
2:00 PM50 °FPassing clouds.7 mph37%30.10 "Hg22 mi
1:00 PM50 °FSunny.7 mph39%30.10 "Hg25 mi
12:00 PM47 °FPassing clouds.7 mph43%30.09 "Hg28 mi
11:00 AM47 °FPassing clouds.8 mph41%30.08 "Hg28 mi
10:00 AM46 °FPassing clouds.8 mph51%30.07 "Hg28 mi
9:00 AM43 °FSunny.7 mph58%30.05 "Hg31 mi
8:00 AM41 °FSunny.5 mph66%30.03 "Hg28 mi
Weather by CustomWeather, © 2015

See weather overviewHow to use our weather pages